Portada
METAR-TAF:

METAR-TAF

Aeroports :

Cairo Regional Airport

Cairo, Illinois, Estats Units d'Amèrica

latitud: 37-03-52N, longitud: 089-13-10W, altitud: 98 m

Observació

L'informe es va fer fa 29 minuts, a les 17:55 UTC
Vent calma
Temperatura 31°C
Humitat 49%
Pressió 1026 hPa
Visibilitat: 16.1 km
Núvols disperses a una alçada de 5000 ft

METAR: KCIR 201755Z AUTO 00000KT 10SM SCT050 31/19 A3030 RMK AO2 T03070189 10309 20226

Hora: 13:24 (18:24 UTC)


TAF: manca

Observacions i pronòstics meteorològics de més de 4000 aeroports (METAR i TAF).

Les estacions disponibles són els punts grocs i vermells al mapa.

Posi el ratolí al punt desitjat per veure el nom de l'estació.

Feu clic per veure les observacions i els pronòstics meteorològics.

Per canviar el mapa: feu clic els botons verds amb una creu de color negre per apropar; al botó verd amb un guió per allunyar la imatge; o en les fletxes verdes per a mapes adjacents.


METAR-TAF: